Location: Newark
(51.2625°N, 13.3939°E)
Time: 23:23:08
(UTC+00:00)

Explorer 7 - Pass Details

Date: 19 November 2019
Orbit: 485 x 680 km, 50.3° (Epoch: 08 December)

Event Time Altitude Azimuth Distance (km) Brightness Sun altitude
Rises 04:06:37 0° 282° (WNW) 2,787 - -22.0°
Reaches altitude 10° 04:09:01 10° 276° (W) 1,851 - -21.6°
Exits shadow 04:12:59 42° 206° (SSW) 780 7.4 -21.0°
Maximum altitude 04:12:59 42° 205° (SSW) 780 7.4 -21.0°
Drops below altitude 10° 04:16:43 10° 135° (SE) 1,742 10.1 -20.4°
Sets 04:18:56 0° 128° (SE) 2,601 11.3 -20.1°
